Location: �berlingen
(47.7735°N, 9.1643°E)
Time: 23:53:05
(UTC+01:00)

ISS - Visible Passes

Search period start: 28 November 2021 00:00
Search period end: 08 December 2021 00:00
Orbit: 417 x 423 km, 51.6° (Epoch: 28 November)

Date Brightness Start Highest point End Pass type
(mag) Time Alt. Az. Time Alt. Az. Time Alt. Az.
28 Nov -3.1 17:52:16 10° W 17:55:32 43° N 17:57:13 24° NE visible
28 Nov -0.8 19:29:24 10° WNW 19:30:12 16° WNW 19:30:12 16° WNW visible
29 Nov -3.2 17:04:58 10° W 17:08:16 49° NNW 17:11:36 10° ENE visible
29 Nov -2.8 18:42:12 10° WNW 18:44:54 40° NNW 18:44:54 40° NNW visible
30 Nov -3.1 17:54:57 10° WNW 17:58:12 41° N 17:59:38 26° ENE visible
30 Nov -0.7 19:31:53 10° WNW 19:32:37 15° WNW 19:32:37 15° WNW visible
01 Dec -3.0 17:07:39 10° WNW 17:10:54 41° N 17:14:10 10° ENE visible
01 Dec -3.1 18:44:40 10° WNW 18:47:22 49° NW 18:47:22 49° NW visible
02 Dec -3.5 17:57:27 10° WNW 18:00:48 52° NNE 18:02:11 30° ENE visible
02 Dec -0.7 19:34:22 10° WNW 19:35:10 16° WNW 19:35:10 16° WNW visible
03 Dec -3.3 17:10:12 10° WNW 17:13:29 45° N 17:16:47 10° E visible
03 Dec -3.2 18:47:04 10° WNW 18:50:04 59° WSW 18:50:04 59° WSW visible
04 Dec -3.8 17:59:49 10° WNW 18:03:13 87° NNE 18:05:04 25° ESE visible
04 Dec -0.6 19:37:10 10° W 19:38:05 15° WSW 19:38:05 15° WSW visible
05 Dec -3.7 17:12:33 10° WNW 17:15:57 66° NNE 17:19:19 10° ESE visible
05 Dec -2.1 18:49:35 10° W 18:52:36 29° SW 18:53:16 27° SSW visible
06 Dec -2.6 18:02:11 10° WNW 18:05:27 44° SSW 18:08:40 10° SE visible
07 Dec -3.3 17:14:50 10° WNW 17:18:12 66° SSW 17:21:34 10° SE visible
07 Dec -0.6 18:52:55 10° WSW 18:54:30 13° SW 18:56:03 10° SSW visible
